| time (UTC) | temp F | wind direction | speed knots | gust knots | rain 1hr in | rain 24hr in | rain mn in | humidity % | barometer mb |
| 20260506080505 | 44 | 326 | 1.7 | 2.6 | 0.00 | 0.00 | 0.00 | 93 | 1013.0 |
| 20260506073449 | 44 | 7 | 1.7 | 1.7 | 0.00 | 0.00 | 0.00 | 93 | 1013.1 |
| 20260506072946 | 44 | 350 | 0.0 | 5.2 | 0.00 | 0.00 | 0.00 | 93 | 1013.3 |
| 20260506072443 | 44 | 146 | 0.9 | 2.6 | 0.00 | 0.00 | 0.00 | 93 | 1013.5 |
| 20260506071941 | 44 | 343 | 1.7 | 2.6 | 0.00 | 0.00 | 0.00 | 93 | 1013.6 |
| 20260506071439 | 44 | 126 | 0.0 | 2.6 | 0.00 | 0.00 | 0.00 | 93 | 1014.0 |
| 20260506070935 | 44 | 64 | 0.9 | 2.6 | 0.00 | 0.00 | 0.00 | 93 | 1013.9 |
| 20260506070432 | 44 | 77 | 0.9 | 1.7 | 0.00 | 0.00 | 0.00 | 93 | 1014.0 |
| 20260506062410 | 44 | 142 | 0.9 | 0.9 | 0.00 | 0.00 | 0.00 | 94 | 1014.3 |
| 20260506061906 | 44 | 93 | 0.9 | 0.9 | 0.00 | 0.00 | 0.00 | 94 | 1014.3 |
| 20260506061403 | 44 | 81 | 0.9 | 1.7 | 0.00 | 0.00 | 0.00 | 94 | 1013.9 |
| 20260506060900 | 44 | 322 | 1.7 | 1.7 | 0.00 | 0.00 | 0.00 | 93 | 1013.6 |
| 20260506060359 | 44 | 58 | 0.9 | 0.9 | 0.00 | 0.00 | 0.00 | 94 | 1014.1 |
| 20260506051330 | 44 | 9 | 1.7 | 1.7 | 0.00 | 0.00 | 0.00 | 93 | 1013.8 |
| 20260506050828 | 44 | 122 | 0.0 | 0.9 | 0.00 | 0.00 | 0.00 | 93 | 1013.7 |
| 20260506050325 | 44 | 349 | 0.9 | 2.6 | 0.00 | 0.00 | 0.00 | 93 | 1013.3 |
| 20260506044816 | 44 | 356 | 1.7 | 1.7 | 0.00 | 0.22 | 0.22 | 95 | 1013.4 |
| 20260506044314 | 45 | 331 | 0.0 | 0.0 | 0.00 | 0.22 | 0.22 | 96 | 1013.2 |
| 20260506043810 | 45 | 15 | 0.0 | 0.0 | 0.00 | 0.22 | 0.22 | 96 | 1013.1 |
| 20260506043307 | 45 | 350 | 0.0 | 1.7 | 0.00 | 0.22 | 0.22 | 96 | 1012.9 |
| 20260506042806 | 45 | 337 | 0.9 | 6.1 | 0.00 | 0.22 | 0.22 | 97 | 1012.8 |
| 20260506042305 | 45 | 353 | 0.0 | 2.6 | 0.00 | 0.22 | 0.22 | 97 | 1012.8 |
| 20260506041802 | 45 | 317 | 0.0 | 0.0 | 0.00 | 0.22 | 0.22 | 98 | 1012.8 |
| 20260506041259 | 45 | 36 | 0.0 | 4.3 | 0.00 | 0.22 | 0.22 | 97 | 1012.8 |
| 20260506040756 | 45 | 20 | 0.0 | 2.6 | 0.00 | 0.22 | 0.22 | 97 | 1012.9 |
| 20260506040254 | 45 | 357 | 0.0 | 0.0 | 0.00 | 0.22 | 0.22 | 97 | 1012.8 |
| 20260506035750 | 45 | 84 | 0.0 | 0.0 | 0.00 | 0.22 | 0.22 | 97 | 1012.8 |
| 20260506035247 | 45 | 13 | 0.0 | 0.0 | 0.00 | 0.22 | 0.22 | 97 | 1012.7 |
| 20260506034744 | 45 | 340 | 0.0 | 0.0 | 0.00 | 0.22 | 0.22 | 97 | 1013.1 |
| 20260506034241 | 45 | 36 | 1.7 | 4.3 | 0.00 | 0.22 | 0.22 | 97 | 1012.7 |
| 20260506033738 | 45 | 347 | 0.0 | 0.9 | 0.00 | 0.22 | 0.22 | 97 | 1012.7 |
| 20260506033235 | 45 | 16 | 2.6 | 2.6 | 0.00 | 0.22 | 0.22 | 97 | 1012.8 |
| 20260506032727 | 45 | 8 | 2.6 | 2.6 | 0.00 | 0.22 | 0.22 | 97 | 1013.2 |
| 20260506032224 | 45 | 31 | 0.9 | 2.6 | 0.00 | 0.22 | 0.22 | 97 | 1013.1 |
| 20260506031720 | 45 | 300 | 2.6 | 4.3 | 0.00 | 0.22 | 0.22 | 97 | 1012.8 |
| 20260506031218 | 45 | 80 | 0.9 | 1.7 | 0.00 | 0.22 | 0.22 | 97 | 1012.6 |
| 20260506030716 | 45 | 58 | 0.9 | 4.3 | 0.00 | 0.22 | 0.22 | 97 | 1012.4 |
| 20260506030213 | 45 | 56 | 1.7 | 4.3 | 0.00 | 0.22 | 0.22 | 97 | 1012.2 |
| 20260506025710 | 45 | 327 | 0.9 | 0.9 | 0.00 | 0.22 | 0.22 | 97 | 1012.3 |
| 20260506025206 | 45 | 17 | 0.9 | 2.6 | 0.00 | 0.22 | 0.22 | 97 | 1012.3 |
| 20260506024703 | 45 | 7 | 0.9 | 1.7 | 0.00 | 0.22 | 0.22 | 97 | 1012.2 |
| 20260506024159 | 45 | 4 | 0.9 | 4.3 | 0.00 | 0.22 | 0.22 | 97 | 1012.3 |
| 20260506023656 | 45 | 149 | 0.9 | 0.9 | 0.00 | 0.22 | 0.22 | 97 | 1012.2 |
| 20260506023154 | 45 | 2 | 1.7 | 1.7 | 0.00 | 0.22 | 0.22 | 97 | 1012.1 |
| 20260506022650 | 45 | 122 | 0.9 | 5.2 | 0.00 | 0.22 | 0.22 | 97 | 1012.0 |
| 20260506022148 | 45 | 18 | 1.7 | 2.6 | 0.00 | 0.22 | 0.22 | 97 | 1011.6 |
| 20260506021645 | 45 | 329 | 1.7 | 2.6 | 0.00 | 0.22 | 0.22 | 97 | 1011.6 |
| 20260506021142 | 45 | 294 | 0.9 | 2.6 | 0.00 | 0.22 | 0.22 | 97 | 1011.3 |
| 20260506020639 | 45 | 301 | 1.7 | 2.6 | 0.00 | 0.22 | 0.22 | 97 | 1011.4 |
| 20260506020137 | 45 | 346 | 1.7 | 2.6 | 0.00 | 0.22 | 0.22 | 97 | 1011.6 |
| 20260506015634 | 45 | 342 | 1.7 | 2.6 | 0.00 | 0.22 | 0.22 | 97 | 1011.3 |
| 20260506015131 | 45 | 42 | 1.7 | 4.3 | 0.00 | 0.22 | 0.22 | 97 | 1011.3 |
| 20260506014629 | 45 | 121 | 0.9 | 2.6 | 0.00 | 0.22 | 0.22 | 97 | 1011.1 |
| 20260506014124 | 45 | 59 | 2.6 | 4.3 | 0.00 | 0.22 | 0.22 | 97 | 1011.1 |
| 20260506013622 | 45 | 25 | 0.9 | 2.6 | 0.00 | 0.22 | 0.22 | 97 | 1011.3 |
| 20260506013119 | 45 | 2 | 1.7 | 5.2 | 0.00 | 0.22 | 0.22 | 97 | 1011.2 |
| 20260506012615 | 45 | 15 | 2.6 | 4.3 | 0.00 | 0.22 | 0.22 | 97 | 1011.1 |
| 20260506012112 | 45 | 338 | 2.6 | 2.6 | 0.00 | 0.22 | 0.22 | 97 | 1011.1 |
| 20260506011610 | 45 | 46 | 0.9 | 4.3 | 0.00 | 0.22 | 0.22 | 97 | 1010.9 |
| 20260506011106 | 45 | 47 | 1.7 | 5.2 | 0.07 | 0.22 | 0.22 | 97 | 1011.1 |
| 20260506010605 | 45 | 10 | 2.6 | 5.2 | 0.07 | 0.22 | 0.22 | 97 | 1011.0 |
| 20260506005559 | 45 | 55 | 0.9 | 2.6 | 0.00 | 0.21 | 0.21 | 97 | 1011.0 |
| 20260506005055 | 45 | 65 | 0.9 | 2.6 | 0.00 | 0.21 | 0.21 | 97 | 1010.9 |
| 20260506004552 | 45 | 1 | 2.6 | 4.3 | 0.00 | 0.21 | 0.21 | 97 | 1010.6 |
| 20260506004048 | 45 | 343 | 4.3 | 5.2 | 0.00 | 0.21 | 0.21 | 97 | 1010.8 |
| 20260506003545 | 45 | 47 | 0.9 | 1.7 | 0.00 | 0.21 | 0.21 | 97 | 1010.9 |
| 20260506003041 | 45 | 27 | 0.9 | 0.9 | 0.00 | 0.21 | 0.21 | 97 | 1010.8 |
| 20260506002537 | 45 | 351 | 1.7 | 5.2 | 0.00 | 0.21 | 0.21 | 97 | 1010.4 |
| 20260506002033 | 45 | 5 | 5.2 | 6.1 | 0.00 | 0.21 | 0.21 | 97 | 1010.3 |
| 20260506001530 | 45 | 7 | 2.6 | 5.2 | 0.00 | 0.21 | 0.21 | 97 | 1010.3 |
| 20260506001027 | 46 | 1 | 0.9 | 4.3 | 0.00 | 0.21 | 0.21 | 97 | 1010.3 |
| 20260506000525 | 46 | 354 | 3.5 | 5.2 | 0.00 | 0.21 | 0.21 | 97 | 1010.3 |
| 20260506000022 | 46 | 25 | 1.7 | 5.2 | 0.05 | 0.21 | 0.21 | 97 | 1010.4 |
| 20260505235520 | 46 | 328 | 4.3 | 6.1 | 0.05 | 0.21 | 0.21 | 97 | 1010.2 |
| 20260505235016 | 46 | 60 | 1.7 | 5.2 | 0.00 | 0.20 | 0.20 | 97 | 1009.9 |
| 20260505234513 | 46 | 26 | 2.6 | 4.3 | 0.07 | 0.20 | 0.20 | 97 | 1009.8 |
| 20260505234010 | 46 | 83 | 2.6 | 2.6 | 0.07 | 0.20 | 0.20 | 97 | 1009.9 |
| 20260505233508 | 46 | 37 | 1.7 | 4.3 | 0.00 | 0.19 | 0.19 | 97 | 1010.2 |
| 20260505233005 | 46 | 327 | 3.5 | 7.0 | 0.00 | 0.19 | 0.19 | 97 | 1010.3 |
| 20260505232503 | 46 | 287 | 4.3 | 7.0 | 0.00 | 0.19 | 0.19 | 97 | 1010.3 |
| 20260505232000 | 46 | 5 | 1.7 | 4.3 | 0.00 | 0.19 | 0.19 | 97 | 1010.2 |
| 20260505231457 | 46 | 34 | 2.6 | 4.3 | 0.00 | 0.19 | 0.19 | 97 | 1009.9 |
| 20260505230955 | 46 | 18 | 3.5 | 5.2 | 0.00 | 0.19 | 0.19 | 97 | 1009.7 |
| 20260505230452 | 46 | 44 | 1.7 | 2.6 | 0.00 | 0.19 | 0.19 | 97 | 1009.6 |
| 20260505225948 | 46 | 334 | 3.5 | 5.2 | 0.00 | 0.19 | 0.19 | 97 | 1009.4 |
| 20260505225446 | 46 | 341 | 1.7 | 7.0 | 0.00 | 0.19 | 0.19 | 96 | 1009.4 |
| 20260505224942 | 46 | 45 | 3.5 | 5.2 | 0.05 | 0.19 | 0.19 | 96 | 1009.7 |
| 20260505224439 | 47 | 29 | 1.7 | 6.1 | 0.00 | 0.18 | 0.18 | 95 | 1009.9 |
| 20260505223936 | 47 | 29 | 2.6 | 6.1 | 0.19 | 0.18 | 0.18 | 94 | 1009.8 |
| 20260505223433 | 47 | 12 | 2.6 | 2.6 | 0.12 | 0.17 | 0.17 | 94 | 1010.0 |
| 20260505222929 | 47 | 23 | 2.6 | 4.3 | 0.00 | 0.15 | 0.15 | 93 | 1010.0 |
| 20260505222426 | 47 | 33 | 3.5 | 7.0 | 0.00 | 0.15 | 0.15 | 93 | 1009.7 |
| 20260505221921 | 47 | 0 | 4.3 | 8.7 | 0.00 | 0.15 | 0.15 | 94 | 1010.0 |
| 20260505221419 | 48 | 18 | 2.6 | 5.2 | 0.00 | 0.15 | 0.15 | 94 | 1009.8 |
| 20260505220916 | 48 | 117 | 1.7 | 1.7 | 0.00 | 0.15 | 0.15 | 94 | 1009.2 |
| 20260505220413 | 48 | 101 | 1.7 | 4.3 | 0.00 | 0.15 | 0.15 | 94 | 1009.4 |
| 20260505215911 | 48 | 32 | 0.9 | 5.2 | 0.00 | 0.15 | 0.15 | 94 | 1009.5 |
| 20260505215408 | 48 | 18 | 2.6 | 5.2 | 0.00 | 0.15 | 0.15 | 93 | 1009.5 |
| 20260505214906 | 48 | 357 | 2.6 | 6.1 | 0.00 | 0.15 | 0.15 | 92 | 1009.6 |
| 20260505214403 | 49 | 53 | 1.7 | 4.3 | 0.00 | 0.15 | 0.15 | 92 | 1009.4 |
| 20260505213900 | 49 | 30 | 0.9 | 5.2 | 0.00 | 0.15 | 0.15 | 91 | 1009.3 |
| 20260505213358 | 49 | 71 | 2.6 | 6.1 | 0.00 | 0.15 | 0.15 | 89 | 1009.6 |
| 20260505212854 | 49 | 149 | 0.9 | 4.3 | 0.00 | 0.15 | 0.15 | 89 | 1009.9 |
| 20260505212351 | 49 | 4 | 2.6 | 5.2 | 0.00 | 0.15 | 0.15 | 89 | 1009.7 |
| 20260505211847 | 49 | 8 | 1.7 | 6.1 | 0.00 | 0.15 | 0.15 | 89 | 1009.8 |
| 20260505211345 | 49 | 24 | 0.9 | 4.3 | 0.00 | 0.15 | 0.15 | 88 | 1009.4 |
| 20260505210841 | 49 | 0 | 4.3 | 5.2 | 0.00 | 0.15 | 0.15 | 88 | 1009.6 |
| 20260505210339 | 49 | 8 | 2.6 | 4.3 | 0.00 | 0.15 | 0.15 | 88 | 1009.4 |
| 20260505205835 | 49 | 1 | 2.6 | 7.8 | 0.00 | 0.15 | 0.15 | 88 | 1009.3 |
| 20260505205334 | 49 | 352 | 2.6 | 6.1 | 0.00 | 0.15 | 0.15 | 88 | 1009.4 |
| 20260505204830 | 49 | 184 | 2.6 | 4.3 | 0.00 | 0.15 | 0.15 | 88 | 1009.2 |
| 20260505204328 | 49 | 2 | 2.6 | 4.3 | 0.00 | 0.15 | 0.15 | 88 | 1009.3 |
| 20260505203825 | 49 | 35 | 4.3 | 6.1 | 0.00 | 0.15 | 0.15 | 88 | 1009.3 |
| 20260505203321 | 49 | 313 | 4.3 | 7.0 | 0.00 | 0.15 | 0.15 | 88 | 1009.8 |
| 20260505202818 | 49 | 20 | 3.5 | 5.2 | 0.00 | 0.15 | 0.15 | 89 | 1010.0 |
| 20260505202314 | 50 | 336 | 2.6 | 4.3 | 0.00 | 0.15 | 0.15 | 90 | 1009.7 |
| 20260505201811 | 49 | 357 | 3.5 | 4.3 | 0.00 | 0.15 | 0.15 | 90 | 1009.3 |
| 20260505201308 | 49 | 358 | 4.3 | 7.0 | 0.00 | 0.15 | 0.15 | 91 | 1009.2 |
| 20260505200807 | 49 | 5 | 3.5 | 6.1 | 0.00 | 0.15 | 0.15 | 93 | 1008.7 |
| 20260505200303 | 49 | 4 | 3.5 | 7.8 | 0.00 | 0.15 | 0.15 | 94 | 1008.8 |
| 20260505195758 | 50 | 26 | 4.3 | 7.8 | 0.00 | 0.15 | 0.15 | 95 | 1008.8 |
| 20260505195256 | 50 | 165 | 1.7 | 2.6 | 0.00 | 0.15 | 0.15 | 96 | 1009.0 |
| 20260505194753 | 50 | 327 | 2.6 | 6.1 | 0.00 | 0.15 | 0.15 | 95 | 1008.7 |
| 20260505194250 | 50 | 11 | 6.1 | 7.0 | 0.00 | 0.15 | 0.15 | 95 | 1009.2 |
| 20260505193745 | 50 | 352 | 2.6 | 6.1 | 0.00 | 0.15 | 0.15 | 95 | 1009.0 |
| 20260505193243 | 50 | 359 | 4.3 | 6.1 | 0.00 | 0.15 | 0.15 | 94 | 1009.4 |
| 20260505192741 | 51 | 327 | 6.1 | 7.8 | 0.00 | 0.15 | 0.15 | 93 | 1009.4 |
| 20260505192239 | 51 | 1 | 4.3 | 7.0 | 0.00 | 0.15 | 0.15 | 92 | 1009.4 |
| 20260505191737 | 51 | 350 | 2.6 | 5.2 | 0.00 | 0.15 | 0.15 | 91 | 1009.4 |
| 20260505191235 | 52 | 343 | 2.6 | 5.2 | 0.00 | 0.15 | 0.15 | 90 | 1009.2 |
| 20260505190731 | 52 | 347 | 1.7 | 5.2 | 0.00 | 0.15 | 0.15 | 89 | 1009.0 |
| 20260505190231 | 52 | 342 | 6.1 | 8.7 | 0.00 | 0.15 | 0.15 | 88 | 1009.0 |
| 20260505185728 | 52 | 2 | 3.5 | 5.2 | 0.00 | 0.15 | 0.15 | 88 | 1008.9 |
| 20260505185224 | 53 | 25 | 4.3 | 7.8 | 0.00 | 0.15 | 0.15 | 86 | 1008.7 |
| 20260505184720 | 53 | 56 | 3.5 | 6.1 | 0.00 | 0.15 | 0.15 | 86 | 1008.7 |
| 20260505184218 | 53 | 54 | 1.7 | 5.2 | 0.00 | 0.15 | 0.15 | 85 | 1008.7 |
| 20260505183714 | 53 | 32 | 1.7 | 4.3 | 0.00 | 0.15 | 0.15 | 86 | 1009.0 |
| 20260505183212 | 53 | 347 | 4.3 | 7.0 | 0.00 | 0.15 | 0.15 | 85 | 1009.0 |
| 20260505182708 | 53 | 320 | 3.5 | 5.2 | 0.00 | 0.15 | 0.15 | 85 | 1009.2 |
| 20260505182205 | 53 | 329 | 3.5 | 5.2 | 0.00 | 0.15 | 0.15 | 85 | 1008.9 |
| 20260505181701 | 53 | 15 | 2.6 | 2.6 | 0.00 | 0.15 | 0.15 | 86 | 1009.0 |
| 20260505181159 | 53 | 355 | 2.6 | 6.1 | 0.00 | 0.15 | 0.15 | 86 | 1008.8 |
| 20260505180655 | 54 | 19 | 1.7 | 4.3 | 0.00 | 0.15 | 0.15 | 86 | 1008.5 |
| 20260505180153 | 53 | 354 | 6.1 | 9.6 | 0.00 | 0.15 | 0.15 | 86 | 1008.9 |
| 20260505175648 | 54 | 339 | 2.6 | 5.2 | 0.00 | 0.15 | 0.15 | 85 | 1008.5 |
| 20260505175145 | 55 | 10 | 3.5 | 5.2 | 0.00 | 0.15 | 0.15 | 84 | 1008.5 |
| 20260505174642 | 55 | 301 | 2.6 | 7.0 | 0.00 | 0.15 | 0.15 | 82 | 1008.8 |
| 20260505174138 | 55 | 16 | 2.6 | 5.2 | 0.00 | 0.15 | 0.15 | 82 | 1008.4 |
| 20260505173635 | 56 | 342 | 5.2 | 7.0 | 0.00 | 0.15 | 0.15 | 81 | 1008.7 |
| 20260505173131 | 56 | 349 | 4.3 | 6.1 | 0.00 | 0.15 | 0.15 | 81 | 1008.6 |
| 20260505172629 | 56 | 352 | 2.6 | 7.0 | 0.00 | 0.15 | 0.15 | 82 | 1008.6 |
| 20260505172126 | 56 | 24 | 2.6 | 7.0 | 0.00 | 0.15 | 0.15 | 83 | 1008.8 |
| 20260505171620 | 55 | 349 | 4.3 | 5.2 | 0.00 | 0.15 | 0.15 | 82 | 1008.9 |
| 20260505171112 | 55 | 44 | 1.7 | 5.2 | 0.00 | 0.15 | 0.15 | 83 | 1008.7 |
| 20260505170609 | 55 | 9 | 1.7 | 5.2 | 0.00 | 0.15 | 0.15 | 84 | 1008.5 |
| 20260505170106 | 55 | 354 | 4.3 | 8.7 | 0.00 | 0.15 | 0.15 | 83 | 1008.7 |
| 20260505165600 | 55 | 29 | 3.5 | 5.2 | 0.00 | 0.15 | 0.15 | 83 | 1008.6 |
| 20260505165056 | 55 | 358 | 3.5 | 5.2 | 0.00 | 0.15 | 0.15 | 83 | 1008.6 |
| 20260505164552 | 55 | 325 | 4.3 | 6.1 | 0.00 | 0.15 | 0.15 | 83 | 1008.6 |
| 20260505164050 | 55 | 316 | 4.3 | 7.0 | 0.00 | 0.15 | 0.15 | 83 | 1008.3 |
| 20260505163543 | 56 | 359 | 4.3 | 7.8 | 0.00 | 0.15 | 0.15 | 83 | 1008.3 |
| 20260505163039 | 56 | 29 | 3.5 | 7.0 | 0.00 | 0.15 | 0.15 | 83 | 1008.3 |
| 20260505162532 | 56 | 271 | 7.0 | 7.8 | 0.00 | 0.15 | 0.15 | 82 | 1008.4 |
| 20260505162030 | 56 | 355 | 5.2 | 7.8 | 0.00 | 0.15 | 0.15 | 83 | 1008.5 |
| 20260505161526 | 56 | 16 | 2.6 | 5.2 | 0.00 | 0.15 | 0.15 | 83 | 1008.3 |
| 20260505161023 | 56 | 84 | 2.6 | 4.3 | 0.00 | 0.15 | 0.15 | 83 | 1008.6 |
| 20260505160521 | 57 | 113 | 2.6 | 6.1 | 0.00 | 0.15 | 0.15 | 83 | 1008.7 |
| 20260505152957 | 58 | 313 | 1.7 | 5.2 | 0.00 | 0.15 | 0.15 | 82 | 1008.2 |
| 20260505152454 | 58 | 353 | 3.5 | 6.1 | 0.00 | 0.15 | 0.15 | 82 | 1007.9 |
| 20260505151949 | 58 | 293 | 4.3 | 6.1 | 0.00 | 0.15 | 0.15 | 82 | 1008.0 |
| 20260505151445 | 59 | 333 | 2.6 | 4.3 | 0.00 | 0.15 | 0.15 | 82 | 1007.6 |
| 20260505150942 | 59 | 338 | 2.6 | 5.2 | 0.00 | 0.15 | 0.15 | 82 | 1007.7 |
| 20260505150439 | 59 | 55 | 1.7 | 4.3 | 0.00 | 0.15 | 0.15 | 83 | 1007.3 |
| 20260505140409 | 56 | 166 | 0.9 | 1.7 | 0.00 | 0.15 | 0.15 | 87 | 1007.9 |
| 20260505124823 | 57 | 43 | 1.7 | 2.6 | 0.00 | 0.15 | 0.15 | 90 | 1007.3 |
| 20260505124320 | 58 | 139 | 0.9 | 0.9 | 0.00 | 0.15 | 0.15 | 91 | 1007.5 |
| 20260505123816 | 58 | 10 | 2.6 | 2.6 | 0.00 | 0.15 | 0.15 | 92 | 1007.0 |
| 20260505123313 | 57 | 182 | 0.0 | 4.3 | 0.00 | 0.15 | 0.15 | 93 | 1007.3 |
| 20260505122809 | 57 | 330 | 1.7 | 2.6 | 0.00 | 0.15 | 0.15 | 93 | 1006.9 |
| 20260505122306 | 57 | 12 | 1.7 | 2.6 | 0.00 | 0.15 | 0.15 | 94 | 1007.0 |
| 20260505121802 | 57 | 4 | 0.9 | 4.3 | 0.00 | 0.15 | 0.15 | 95 | 1006.8 |
| 20260505121259 | 58 | 138 | 0.9 | 0.9 | 0.00 | 0.15 | 0.15 | 95 | 1006.6 |
| 20260505120755 | 57 | 351 | 1.7 | 1.7 | 0.00 | 0.15 | 0.15 | 95 | 1006.1 |
| 20260505120252 | 57 | 348 | 2.6 | 2.6 | 0.00 | 0.15 | 0.15 | 94 | 1006.3 |
| 20260505115750 | 57 | 347 | 1.7 | 4.3 | 0.00 | 0.15 | 0.15 | 94 | 1006.8 |
| 20260505115248 | 57 | 93 | 0.9 | 2.6 | 0.00 | 0.15 | 0.15 | 94 | 1006.6 |
| 20260505114745 | 57 | 21 | 0.0 | 0.0 | 0.00 | 0.15 | 0.15 | 95 | 1006.6 |
| 20260505114241 | 57 | 24 | 0.0 | 0.0 | 0.00 | 0.15 | 0.15 | 95 | 1006.5 |
| 20260505113738 | 58 | 25 | 0.0 | 0.0 | 0.00 | 0.15 | 0.15 | 96 | 1006.5 |
| 20260505113235 | 58 | 52 | 0.0 | 0.9 | 0.00 | 0.15 | 0.15 | 96 | 1006.9 |
| 20260505112731 | 58 | 58 | 0.0 | 0.0 | 0.00 | 0.15 | 0.15 | 96 | 1006.8 |
| 20260505112229 | 59 | 306 | 0.0 | 0.0 | 0.00 | 0.15 | 0.15 | 96 | 1006.1 |
| 20260505111728 | 59 | 347 | 0.0 | 0.0 | 0.05 | 0.15 | 0.15 | 96 | 1006.1 |
| 20260505111225 | 59 | 42 | 0.0 | 2.6 | 0.05 | 0.15 | 0.15 | 96 | 1006.2 |
| 20260505110720 | 60 | 173 | 0.0 | 0.0 | 0.00 | 0.14 | 0.14 | 97 | 1005.8 |
| 20260505110218 | 60 | 334 | 0.0 | 1.7 | 0.00 | 0.14 | 0.14 | 97 | 1005.7 |
| 20260505102154 | 60 | 161 | 0.0 | 0.9 | 0.00 | 0.13 | 0.13 | 95 | 1006.2 |
| 20260505101652 | 60 | 168 | 0.0 | 1.7 | 0.07 | 0.13 | 0.13 | 94 | 1006.0 |
| 20260505101148 | 60 | 112 | 0.9 | 1.7 | 0.07 | 0.13 | 0.13 | 94 | 1006.2 |
| 20260505100644 | 60 | 53 | 0.9 | 4.3 | 0.00 | 0.12 | 0.12 | 93 | 1006.1 |
| 20260505100142 | 60 | 138 | 1.7 | 4.3 | 0.00 | 0.12 | 0.12 | 92 | 1006.3 |
| 20260505095637 | 60 | 61 | 2.6 | 2.6 | 0.00 | 0.12 | 0.12 | 92 | 1006.0 |
| 20260505095135 | 60 | 178 | 0.0 | 0.9 | 0.00 | 0.12 | 0.12 | 91 | 1005.6 |
| 20260505094631 | 60 | 187 | 0.0 | 0.9 | 0.00 | 0.12 | 0.12 | 90 | 1005.1 |
| 20260505094127 | 61 | 162 | 0.0 | 1.7 | 0.00 | 0.12 | 0.12 | 89 | 1005.4 |
| 20260505093624 | 61 | 186 | 1.7 | 4.3 | 0.05 | 0.12 | 0.12 | 88 | 1005.2 |
| 20260505093121 | 61 | 181 | 4.3 | 6.1 | 0.05 | 0.12 | 0.12 | 87 | 1005.1 |
| 20260505092618 | 62 | 199 | 2.6 | 4.3 | 0.00 | 0.11 | 0.11 | 85 | 1004.9 |
| 20260505092117 | 62 | 189 | 2.6 | 6.1 | 0.00 | 0.11 | 0.11 | 83 | 1004.8 |
| 20260505091613 | 61 | 160 | 3.5 | 5.2 | 0.00 | 0.11 | 0.11 | 84 | 1004.7 |
| 20260505091111 | 60 | 175 | 1.7 | 5.2 | 0.00 | 0.11 | 0.11 | 88 | 1004.6 |
| 20260505090609 | 61 | 163 | 0.9 | 6.1 | 0.00 | 0.11 | 0.11 | 88 | 1004.5 |
| 20260505090107 | 60 | 203 | 3.5 | 7.8 | 0.00 | 0.11 | 0.11 | 90 | 1003.8 |
| 20260505085604 | 60 | 177 | 4.3 | 7.8 | 0.00 | 0.11 | 0.11 | 92 | 1003.2 |
| 20260505085102 | 59 | 193 | 2.6 | 12.2 | 0.00 | 0.11 | 0.11 | 95 | 1003.6 |
| 20260505084600 | 60 | 177 | 6.1 | 7.8 | 0.07 | 0.11 | 0.11 | 97 | 1003.6 |
| 20260505084058 | 60 | 199 | 2.6 | 6.1 | 0.05 | 0.10 | 0.10 | 97 | 1004.4 |
| 20260505083555 | 60 | 193 | 6.1 | 12.2 | 0.05 | 0.10 | 0.10 | 96 | 1005.1 |
| 20260505083051 | 60 | 176 | 5.2 | 8.7 | 0.07 | 0.09 | 0.09 | 96 | 1005.7 |
| 20260505082547 | 60 | 181 | 3.5 | 4.3 | 0.07 | 0.09 | 0.09 | 96 | 1006.1 |
| 20260505082044 | 61 | 171 | 2.6 | 4.3 | 0.05 | 0.08 | 0.08 | 96 | 1006.0 |
| 20260505081540 | 61 | 165 | 2.6 | 4.3 | 0.07 | 0.07 | 0.07 | 96 | 1006.2 |
| 20260505081038 | 61 | 265 | 3.5 | 7.8 | 0.07 | 0.07 | 0.07 | 96 | 1005.8 |